SCP
0 0 0 0 0 0 0 0 0 0 0 0 0 0 0 0 0 0 0 0 0 0 0 0 0 0 0 0 0 0 0 0 0 0 0 0 0 0 0 0 0 0 0
0 0 0 0 0 0 0 0 0 0 0 0 0 0 0 0 0 0 0 0 0 0 0 0 0 0 0 0 0 0 0 0 0 0 0 0 0 0 0 0 0 0 0
0 0 0 0 0 0 0 0 0 0 0 0 0 0 0 0 0 0 0 0 0 0 0 0 0 0 0 0 0 0 0 0 0 0 0 0 0 0 0 0 0 0 0
0 0 0 0 0 0 0 0 0 0 0 0 0 0 0 0 0 0 0 0 0 0 0 0 0 0 0 0 0 0 0 0 0 0 0 0 0 0 0 0 0 0 0
0 0 0 0 0 0 0 0 0 0 0 0 0 0 0 0 0 0 0 0 0 0 0 0 0 0 0 0 0 0 0 0 0 0 0 0 0 0 0 0 0 0 0
0 0 0 0 0 0 0 0 0 0 0 0 0 0 0 0 0 0 0 0 0 0 0 0 0 0 0 0 0 0 0 0 0 0 0 0 0 0 0 0 0 0 0
0 0 0 0 0 0 0 0 0 0 0 0 0 0 0 0 0 0 0 0 0 0 0 0 0 0 0 0 0 0 0 0 0 0 0 0 0 0 0 0 0 0 0
0 0 0 0 0 0 0 0 0 0 0 0 0 0 0 0 0 0 0 0 0 0 0 0 0 0 0 0 0 0 0 0 0 0 0 0 0 0 0 0 0 0 0
0 0 0 0 0 0 0 0 0 0 0 0 0 0 0 0 0 0 0 0 0 0 0 0 0 0 0 0 0 0 0 0 0 0 0 0 0 0 0 0 0 0 0
0 0 0 0 0 0 0 0 0 0 0 0 0 0 0 0 0 0 0 0 0 0 0 0 0 0 0 0 0 0 0 0 0 0 0 0 0 0 0 0 0 0 0
0 0 0 0 0 0 0 0 0 0 0 0 0 0 0 0 0 0 0 0 0 0 0 0 0 0 0 0 0 0 0 0 0 0 0 0 0 0 0 0 0 0 0
0 0 0 0 0 0 0 0 0 0 0 0 0 0 0 0 0 0 0 0 0 0 0 0 0 0 0 0 0 0 0 0 0 0 0 0 0 0 0 0 0 0 0
0 0 0 0 0 0 0 0 0 0 0 0 0 0 0 0 0 0 0 0 0 0 0 0 0 0 0 0 0 0 0 0 0 0 0 0 0 0 0 0 0 0 0
0 0 0 0 0 0 0 0 0 0 0 0 0 0 0 0 0 0 0 0 0 0 0 0 0 0 0 0 0 0 0 0 0 0 0 0 0 0 0 0 0 0 0
0 0 0 0 0 0 0 0 0 0 0 0 0 0 0 0 0 0 0 0 0 0 0 0 0 0 0 0 0 0 0 0 0 0 0 0 0 0 0 0 0 0 0
0 0 0 0 0 0 0 0 0 0 0 0 0 0 0 0 0 0 0 0 0 0 0 0 0 0 0 0 0 0 0 0 0 0 0 0 0 0 0 0 0 0 0
0 0 0 0 0 0 0 0 0 0 0 0 0 0 0 0 0 0 0 0 0 0 0 0 0 0 0 0 0 0 0 0 0 0 0 0 0 0 0 0 0 0 0
0 0 0 0 0 0 0 0 0 0 0 0 0 0 0 0 0 0 0 0 0 0 0 0 0 0 0 0 0 0 0 0 0 0 0 0 0 0 0 0 0 0 0
0 0 0 0 0 0 0 0 0 0 0 0 0 0 0 0 0 0 0 0 0 0 0 0 0 0 0 0 0 0 0 0 0 0 0 0 0 0 0 0 0 0 0
0 0 0 0 0 0 0 0 0 0 0 0 0 0 0 0 0 0 0 0 0 0 0 0 0 0 0 0 0 0 0 0 0 0 0 0 0 0 0 0 0 0 0
0 0 0 0 0 0 0 0 0 0 0 0 0 0 0 0 0 0 0 0 0 0 0 0 0 0 0 0 0 0 0 0 0 0 0 0 0 0 0 0 0 0 0
0 0 0 0 0 0 0 0 0 0 0 0 0 0 0 0 0 0 0 0 0 0 0 0 0 0 0 0 0 0 0 0 0 0 0 0 0 0 0 0 0 0 0
0 0 0 0 0 0 0 0 0 0 0 0 0 0 0 0 0 0 0 0 0 0 0 0 0 0 0 0 0 0 0 0 0 0 0 0 0 0 0 0 0 0 0
0 0 0 0 0 0 0 0 0 0 0 0 0 0 0 0 0 0 0 0 0 0 0 0 0 0 0 0 0 0 0 0 0 0 0 0 0 0 0 0 0 0 0
0 0 0 0 0 0 0 0 0 0 0 0 0 0 0 0 0 0 0 0 0 0 0 0 0 0 0 0 0 0 0 0 0 0 0 0 0 0 0 0 0 0 -0
0 0 0 0 0 0 0 0 0 0 0 0 0 0 0 0 0 0 0 0 0 0 0 0 0 0 0 0 0 0 0 0 0 0 0 0 0 0 0 0 0 0 0
Wind_Speed_500mb
25 27 34 38 45 53 57 57 59 58 59 60 59 60 60 57 55 50 44 40 38 42 41 44 43 42 46 45 51 54 57 56 56 62 63 70 70 73 73 70 74 76 69
24 29 35 42 47 48 55 59 59 59 60 60 60 61 60 59 56 55 52 49 46 45 47 47 51 53 55 57 54 57 63 65 65 71 73 65 64 81 66 64 66 64 69
11 14 22 31 39 51 61 57 57 58 59 57 57 58 61 57 54 52 49 47 47 47 51 51 55 57 58 60 59 62 64 74 72 69 82 42 40 48 61 57 64 64 67
4 4 7 14 18 27 47 56 52 51 54 55 57 55 54 52 49 48 43 42 38 37 43 46 49 54 60 63 64 70 70 67 76 73 75 82 82 73 71 66 68 82 86
15 16 15 13 10 8 16 32 38 43 44 45 48 49 50 47 45 44 43 43 43 42 41 41 43 45 52 55 59 63 64 67 71 76 85 81 83 86 90 83 80 84 90
21 22 23 21 20 18 14 15 22 30 32 31 32 37 38 39 41 41 41 43 43 43 41 41 43 47 52 58 61 63 65 67 72 73 77 82 82 85 85 93 106 103 103
27 30 32 31 30 28 26 23 19 18 17 17 19 23 26 26 26 28 30 32 33 35 36 40 44 47 51 56 58 62 67 70 73 75 80 83 88 87 91 95 104 104 97
40 44 47 47 47 47 44 41 38 35 30 25 19 13 8 5 5 9 12 16 19 22 25 28 32 36 41 44 50 58 64 69 75 78 80 83 87 86 88 92 91 102 94
43 48 49 50 49 47 45 43 40 38 34 29 24 18 13 8 4 6 10 14 19 23 26 30 34 38 42 47 51 59 62 66 72 76 79 83 82 88 86 88 88 87 94
42 45 45 42 41 37 34 29 27 26 24 20 17 14 11 9 9 11 14 17 21 25 29 33 37 40 44 49 54 60 63 67 70 75 79 81 81 82 83 87 88 87 88
42 43 41 37 33 29 26 24 23 21 18 15 15 13 11 12 14 16 18 21 24 26 30 33 36 39 42 45 49 53 57 60 64 67 73 77 77 80 81 87 88 90 88
42 41 38 34 31 26 23 19 19 16 16 15 13 11 12 13 15 18 21 24 27 31 35 39 44 48 51 55 58 61 64 66 70 70 71 73 72 76 77 75 85 88 89
40 38 35 31 27 23 19 16 16 15 14 13 12 13 14 17 21 24 28 33 38 44 51 56 57 61 64 65 66 68 70 71 74 76 78 77 73 75 74 74 76 84 86
41 38 34 28 23 20 19 17 15 14 13 14 16 18 20 24 30 35 41 47 51 55 57 59 63 65 65 67 70 72 75 76 77 77 78 80 79 78 74 72 69 71 77
41 36 31 27 23 21 18 15 12 11 12 15 17 21 26 31 35 40 43 46 51 54 58 60 61 64 68 69 72 74 76 78 79 77 75 76 78 78 72 65 71 74 79
45 38 32 28 25 20 14 9 6 9 15 19 23 27 32 37 42 47 52 55 57 59 61 63 69 73 72 74 76 79 83 81 80 82 81 78 75 72 69 68 69 72 76
46 38 33 28 22 15 9 5 6 11 15 22 28 34 39 45 51 56 59 61 64 67 69 72 76 79 81 82 84 81 82 83 84 81 79 79 78 74 72 68 69 72 72
46 40 33 26 18 11 5 5 11 18 24 30 37 43 48 53 57 58 60 64 68 71 75 77 79 83 84 83 86 87 87 84 82 78 77 79 80 77 71 70 71 70 71
45 38 30 22 17 10 1 9 18 26 33 38 43 49 55 58 60 63 65 67 73 76 79 80 84 86 88 87 88 88 89 90 87 79 74 72 77 76 68 69 71 69 66
41 35 26 18 8 4 11 19 28 35 40 45 48 51 55 59 64 68 72 75 78 83 86 89 89 91 93 93 92 88 87 91 88 83 78 67 67 66 63 62 58 53 44
39 30 20 11 9 14 20 28 34 40 45 47 50 53 56 63 67 74 76 81 85 88 90 93 94 94 92 90 92 87 82 80 79 75 69 63 58 55 49 41 35 27 17
34 25 17 13 17 22 25 29 36 43 47 51 54 58 62 66 70 74 77 77 79 83 85 90 93 94 92 88 86 84 73 61 57 56 57 53 39 27 23 16 11 17 26
24 17 13 16 21 24 30 34 39 46 51 55 58 60 64 66 69 75 80 85 87 87 90 90 92 92 88 83 77 69 54 42 43 44 36 17 6 13 3 12 18 26 29
19 17 18 18 22 27 29 37 44 48 52 57 58 62 66 68 69 72 76 82 86 88 87 87 89 89 86 76 63 55 36 31 29 18 3 6 5 12 16 18 24 30 35
19 20 22 24 25 30 34 38 45 50 56 62 67 71 73 76 78 78 80 83 84 84 86 83 80 77 80 68 50 33 26 23 9 7 13 14 16 16 24 30 30 29 23
21 22 23 25 30 34 35 40 48 56 64 72 76 79 83 85 87 89 91 86 87 86 84 74 68 67 64 57 40 26 23 16 14 18 23 23 22 24 27 26 24 18 12
Wind_Direction_500mb
259 252 244 239 235 235 234 232 232 232 234 237 238 242 246 250 253 256 260 259 257 256 260 258 259 266 266 268 270 273 272 275 277 277 285 277 280 280 280 285 281 279 282
267 252 244 238 235 234 235 234 234 234 236 240 242 245 250 254 258 262 263 264 263 260 256 264 266 268 270 270 274 272 274 274 278 274 272 273 283 283 282 290 285 284 279
258 250 237 235 237 236 232 231 233 235 237 238 242 244 248 254 257 259 263 265 269 267 267 269 267 266 267 270 270 272 274 274 274 275 272 269 276 280 294 286 283 281 278
76 114 171 208 233 239 230 228 231 233 236 237 240 246 251 255 262 267 272 278 281 277 272 272 271 266 269 273 275 281 275 282 272 274 277 272 278 274 285 283 280 282 283
106 107 109 117 125 162 206 223 228 229 233 235 237 242 250 255 260 264 272 277 280 280 280 277 278 273 275 278 277 278 278 277 280 277 281 277 280 276 269 279 285 284 285
112 106 101 100 103 106 128 172 200 212 218 224 227 234 242 249 254 260 265 269 272 274 274 273 271 271 271 273 275 277 276 275 274 276 278 279 279 280 280 283 288 291 290
116 110 108 105 102 101 102 109 123 153 175 197 211 219 226 233 241 249 258 266 272 276 275 272 271 270 269 270 273 275 275 276 277 277 276 277 277 278 282 283 284 285 288
119 115 110 105 101 98 96 96 98 100 103 107 111 117 133 168 236 261 272 278 279 282 281 280 281 284 285 284 284 284 284 284 283 281 277 275 275 276 276 277 282 286 284
122 117 114 111 106 103 99 96 95 94 94 93 92 93 88 79 35 328 308 299 295 294 297 296 294 291 290 290 288 288 288 286 286 285 285 283 281 280 278 277 277 277 281
126 123 120 117 113 107 102 100 96 96 92 88 83 74 55 33 4 343 328 318 312 309 304 301 300 298 294 292 290 290 291 290 290 290 289 288 288 286 281 280 281 279 276
134 128 123 119 115 113 109 103 96 88 87 81 72 59 39 17 3 349 341 335 328 324 322 320 318 315 312 308 303 300 297 293 292 290 290 290 288 284 282 283 284 280 277
137 133 131 130 129 124 117 108 100 95 84 72 62 44 27 9 352 343 340 338 337 336 333 330 328 325 322 318 314 310 305 302 299 297 293 291 289 287 285 278 277 278 279
145 143 140 139 134 127 115 107 99 88 79 61 42 24 7 354 344 341 337 334 330 328 325 321 318 316 314 311 309 308 307 306 303 302 301 299 295 290 286 282 281 278 278
157 155 151 144 133 126 122 112 99 82 60 36 15 3 355 348 341 336 331 326 322 320 317 315 313 313 312 311 310 307 305 303 302 301 301 300 296 293 288 285 284 279 278
167 161 154 147 143 136 125 106 83 57 29 4 352 345 343 338 332 326 323 320 319 317 316 314 313 314 315 315 313 311 307 305 302 299 298 298 298 296 291 284 281 280 279
170 164 160 155 147 140 128 107 62 18 359 350 343 341 336 332 328 325 323 320 319 319 318 317 317 317 315 314 314 313 310 308 305 303 301 298 294 293 291 285 279 276 277
171 168 165 159 153 144 126 87 19 354 346 338 334 330 327 325 323 321 318 317 316 315 313 313 313 313 314 315 314 313 310 308 306 304 302 299 296 294 291 286 281 277 274
172 169 166 160 157 153 136 20 345 332 328 327 325 323 322 320 318 316 315 315 314 314 314 313 313 312 312 313 312 311 310 307 305 302 299 297 296 293 290 286 282 279 277
173 170 170 170 164 156 163 330 322 319 319 319 320 319 318 317 316 314 315 314 312 312 311 311 310 310 309 310 309 310 307 305 304 301 297 295 296 296 288 285 286 286 282
173 171 169 167 176 274 314 313 307 308 310 312 314 316 316 315 315 315 314 313 310 308 308 308 308 308 308 309 310 310 307 305 304 302 300 295 293 290 287 284 282 280 279
169 168 171 193 245 285 295 300 304 307 309 310 311 311 311 311 311 310 310 309 308 305 305 304 304 304 305 306 307 308 305 301 301 300 301 300 295 290 285 278 274 267 240
168 176 194 237 269 282 293 302 305 306 307 308 310 311 311 310 309 307 307 306 306 306 306 306 306 307 308 309 308 307 303 300 297 300 300 300 295 288 283 273 235 181 165
180 197 224 255 274 288 300 304 304 305 307 310 312 313 313 312 311 309 308 307 305 305 305 306 306 308 310 310 309 305 300 296 298 300 303 296 269 283 232 146 155 148 149
202 233 250 265 279 291 299 304 306 306 310 312 314 314 314 314 313 311 309 307 307 307 305 306 306 309 310 311 310 307 301 300 302 300 224 172 211 151 144 138 140 140 140
232 254 270 282 290 299 305 306 305 307 310 310 310 310 311 311 309 306 305 305 307 307 306 303 303 308 307 309 304 291 292 294 269 198 171 170 154 146 145 145 139 143 146
244 259 272 288 296 300 301 302 303 306 307 307 307 307 307 306 305 303 302 301 302 304 303 300 298 301 292 298 287 264 277 238 201 187 183 173 169 155 150 154 159 165 173
Wind_Speed_850mb
25 27 34 38 45 53 57 57 59 58 59 60 59 60 60 57 55 50 44 40 38 42 41 44 43 42 46 45 51 54 57 56 56 62 63 70 70 73 73 70 74 76 69
24 29 35 42 47 48 55 59 59 59 60 60 60 61 60 59 56 55 52 49 46 45 47 47 51 53 55 57 54 57 63 65 65 71 73 65 64 81 66 64 66 64 69
11 14 22 31 39 51 61 57 57 58 59 57 57 58 61 57 54 52 49 47 47 47 51 51 55 57 58 60 59 62 64 74 72 69 82 42 40 48 61 57 64 64 67
4 4 7 14 18 27 47 56 52 51 54 55 57 55 54 52 49 48 43 42 38 37 43 46 49 54 60 63 64 70 70 67 76 73 75 82 82 73 71 66 68 82 86
15 16 15 13 10 8 16 32 38 43 44 45 48 49 50 47 45 44 43 43 43 42 41 41 43 45 52 55 59 63 64 67 71 76 85 81 83 86 90 83 80 84 90
21 22 23 21 20 18 14 15 22 30 32 31 32 37 38 39 41 41 41 43 43 43 41 41 43 47 52 58 61 63 65 67 72 73 77 82 82 85 85 93 106 103 103
27 30 32 31 30 28 26 23 19 18 17 17 19 23 26 26 26 28 30 32 33 35 36 40 44 47 51 56 58 62 67 70 73 75 80 83 88 87 91 95 104 104 97
40 44 47 47 47 47 44 41 38 35 30 25 19 13 8 5 5 9 12 16 19 22 25 28 32 36 41 44 50 58 64 69 75 78 80 83 87 86 88 92 91 102 94
43 48 49 50 49 47 45 43 40 38 34 29 24 18 13 8 4 6 10 14 19 23 26 30 34 38 42 47 51 59 62 66 72 76 79 83 82 88 86 88 88 87 94
42 45 45 42 41 37 34 29 27 26 24 20 17 14 11 9 9 11 14 17 21 25 29 33 37 40 44 49 54 60 63 67 70 75 79 81 81 82 83 87 88 87 88
42 43 41 37 33 29 26 24 23 21 18 15 15 13 11 12 14 16 18 21 24 26 30 33 36 39 42 45 49 53 57 60 64 67 73 77 77 80 81 87 88 90 88
42 41 38 34 31 26 23 19 19 16 16 15 13 11 12 13 15 18 21 24 27 31 35 39 44 48 51 55 58 61 64 66 70 70 71 73 72 76 77 75 85 88 89
40 38 35 31 27 23 19 16 16 15 14 13 12 13 14 17 21 24 28 33 38 44 51 56 57 61 64 65 66 68 70 71 74 76 78 77 73 75 74 74 76 84 86
41 38 34 28 23 20 19 17 15 14 13 14 16 18 20 24 30 35 41 47 51 55 57 59 63 65 65 67 70 72 75 76 77 77 78 80 79 78 74 72 69 71 77
41 36 31 27 23 21 18 15 12 11 12 15 17 21 26 31 35 40 43 46 51 54 58 60 61 64 68 69 72 74 76 78 79 77 75 76 78 78 72 65 71 74 79
45 38 32 28 25 20 14 9 6 9 15 19 23 27 32 37 42 47 52 55 57 59 61 63 69 73 72 74 76 79 83 81 80 82 81 78 75 72 69 68 69 72 76
46 38 33 28 22 15 9 5 6 11 15 22 28 34 39 45 51 56 59 61 64 67 69 72 76 79 81 82 84 81 82 83 84 81 79 79 78 74 72 68 69 72 72
46 40 33 26 18 11 5 5 11 18 24 30 37 43 48 53 57 58 60 64 68 71 75 77 79 83 84 83 86 87 87 84 82 78 77 79 80 77 71 70 71 70 71
45 38 30 22 17 10 1 9 18 26 33 38 43 49 55 58 60 63 65 67 73 76 79 80 84 86 88 87 88 88 89 90 87 79 74 72 77 76 68 69 71 69 66
41 35 26 18 8 4 11 19 28 35 40 45 48 51 55 59 64 68 72 75 78 83 86 89 89 91 93 93 92 88 87 91 88 83 78 67 67 66 63 62 58 53 44
39 30 20 11 9 14 20 28 34 40 45 47 50 53 56 63 67 74 76 81 85 88 90 93 94 94 92 90 92 87 82 80 79 75 69 63 58 55 49 41 35 27 17
34 25 17 13 17 22 25 29 36 43 47 51 54 58 62 66 70 74 77 77 79 83 85 90 93 94 92 88 86 84 73 61 57 56 57 53 39 27 23 16 11 17 26
24 17 13 16 21 24 30 34 39 46 51 55 58 60 64 66 69 75 80 85 87 87 90 90 92 92 88 83 77 69 54 42 43 44 36 17 6 13 3 12 18 26 29
19 17 18 18 22 27 29 37 44 48 52 57 58 62 66 68 69 72 76 82 86 88 87 87 89 89 86 76 63 55 36 31 29 18 3 6 5 12 16 18 24 30 35
19 20 22 24 25 30 34 38 45 50 56 62 67 71 73 76 78 78 80 83 84 84 86 83 80 77 80 68 50 33 26 23 9 7 13 14 16 16 24 30 30 29 23
21 22 23 25 30 34 35 40 48 56 64 72 76 79 83 85 87 89 91 86 87 86 84 74 68 67 64 57 40 26 23 16 14 18 23 23 22 24 27 26 24 18 12
Wind_Direction_850mb
259 252 244 239 235 235 234 232 232 232 234 237 238 242 246 250 253 256 260 259 257 256 260 258 259 266 266 268 270 273 272 275 277 277 285 277 280 280 280 285 281 279 282
267 252 244 238 235 234 235 234 234 234 236 240 242 245 250 254 258 262 263 264 263 260 256 264 266 268 270 270 274 272 274 274 278 274 272 273 283 283 282 290 285 284 279
258 250 237 235 237 236 232 231 233 235 237 238 242 244 248 254 257 259 263 265 269 267 267 269 267 266 267 270 270 272 274 274 274 275 272 269 276 280 294 286 283 281 278
76 114 171 208 233 239 230 228 231 233 236 237 240 246 251 255 262 267 272 278 281 277 272 272 271 266 269 273 275 281 275 282 272 274 277 272 278 274 285 283 280 282 283
106 107 109 117 125 162 206 223 228 229 233 235 237 242 250 255 260 264 272 277 280 280 280 277 278 273 275 278 277 278 278 277 280 277 281 277 280 276 269 279 285 284 285
112 106 101 100 103 106 128 172 200 212 218 224 227 234 242 249 254 260 265 269 272 274 274 273 271 271 271 273 275 277 276 275 274 276 278 279 279 280 280 283 288 291 290
116 110 108 105 102 101 102 109 123 153 175 197 211 219 226 233 241 249 258 266 272 276 275 272 271 270 269 270 273 275 275 276 277 277 276 277 277 278 282 283 284 285 288
119 115 110 105 101 98 96 96 98 100 103 107 111 117 133 168 236 261 272 278 279 282 281 280 281 284 285 284 284 284 284 284 283 281 277 275 275 276 276 277 282 286 284
122 117 114 111 106 103 99 96 95 94 94 93 92 93 88 79 35 328 308 299 295 294 297 296 294 291 290 290 288 288 288 286 286 285 285 283 281 280 278 277 277 277 281
126 123 120 117 113 107 102 100 96 96 92 88 83 74 55 33 4 343 328 318 312 309 304 301 300 298 294 292 290 290 291 290 290 290 289 288 288 286 281 280 281 279 276
134 128 123 119 115 113 109 103 96 88 87 81 72 59 39 17 3 349 341 335 328 324 322 320 318 315 312 308 303 300 297 293 292 290 290 290 288 284 282 283 284 280 277
137 133 131 130 129 124 117 108 100 95 84 72 62 44 27 9 352 343 340 338 337 336 333 330 328 325 322 318 314 310 305 302 299 297 293 291 289 287 285 278 277 278 279
145 143 140 139 134 127 115 107 99 88 79 61 42 24 7 354 344 341 337 334 330 328 325 321 318 316 314 311 309 308 307 306 303 302 301 299 295 290 286 282 281 278 278
157 155 151 144 133 126 122 112 99 82 60 36 15 3 355 348 341 336 331 326 322 320 317 315 313 313 312 311 310 307 305 303 302 301 301 300 296 293 288 285 284 279 278
167 161 154 147 143 136 125 106 83 57 29 4 352 345 343 338 332 326 323 320 319 317 316 314 313 314 315 315 313 311 307 305 302 299 298 298 298 296 291 284 281 280 279
170 164 160 155 147 140 128 107 62 18 359 350 343 341 336 332 328 325 323 320 319 319 318 317 317 317 315 314 314 313 310 308 305 303 301 298 294 293 291 285 279 276 277
171 168 165 159 153 144 126 87 19 354 346 338 334 330 327 325 323 321 318 317 316 315 313 313 313 313 314 315 314 313 310 308 306 304 302 299 296 294 291 286 281 277 274
172 169 166 160 157 153 136 20 345 332 328 327 325 323 322 320 318 316 315 315 314 314 314 313 313 312 312 313 312 311 310 307 305 302 299 297 296 293 290 286 282 279 277
173 170 170 170 164 156 163 330 322 319 319 319 320 319 318 317 316 314 315 314 312 312 311 311 310 310 309 310 309 310 307 305 304 301 297 295 296 296 288 285 286 286 282
173 171 169 167 176 274 314 313 307 308 310 312 314 316 316 315 315 315 314 313 310 308 308 308 308 308 308 309 310 310 307 305 304 302 300 295 293 290 287 284 282 280 279
169 168 171 193 245 285 295 300 304 307 309 310 311 311 311 311 311 310 310 309 308 305 305 304 304 304 305 306 307 308 305 301 301 300 301 300 295 290 285 278 274 267 240
168 176 194 237 269 282 293 302 305 306 307 308 310 311 311 310 309 307 307 306 306 306 306 306 306 307 308 309 308 307 303 300 297 300 300 300 295 288 283 273 235 181 165
180 197 224 255 274 288 300 304 304 305 307 310 312 313 313 312 311 309 308 307 305 305 305 306 306 308 310 310 309 305 300 296 298 300 303 296 269 283 232 146 155 148 149
202 233 250 265 279 291 299 304 306 306 310 312 314 314 314 314 313 311 309 307 307 307 305 306 306 309 310 311 310 307 301 300 302 300 224 172 211 151 144 138 140 140 140
232 254 270 282 290 299 305 306 305 307 310 310 310 310 311 311 309 306 305 305 307 307 306 303 303 308 307 309 304 291 292 294 269 198 171 170 154 146 145 145 139 143 146
244 259 272 288 296 300 301 302 303 306 307 307 307 307 307 306 305 303 302 301 302 304 303 300 298 301 292 298 287 264 277 238 201 187 183 173 169 155 150 154 159 165 173